sat.trackr.live / text

‹ back to catalog

KUIPER-00145

NORAD 65767 · 2025-217F

PAYLOAD ACTIVE UNKNOWN

§ Identity

Operator
Country
US
Launch date
2025-09-25
Launch site
AFETR
Launch vehicle
Mass (kg)
RCS (m²)

External: N2YO · Heavens-Above · Gunter

§ Orbital elements

Epoch: 2026-09-20T13:54:53.064576Z

Period
97.30 min
Inclination
51.9004°
Eccentricity
0.0000633
Mean motion
14.79925334 rev/d
Perigee alt
629.1 km
Apogee alt
630.0 km
Semi-major
7,007.7 km
B*
2.5687e-4
RAAN
256.2999°
Arg perigee
51.5973°
Mean anomaly
308.5046°
Rev number
5,380

§ Raw data

KUIPER-001451 65767U 25217F   26263.57978084  .00001737  00000+0  25687-3 0  99932 65767  51.9004 256.2999 0000633  51.5973 308.5046 14.79925334 53805

JSON: /api/v1/satellites/65767 · /tle

For live sub-satellite position, see the globe view (requires WebGL).

§ Visibility from observer

Set your observer location to see the next 7 days of passes ≥ 10°. The values pass through the URL so the page stays shareable.

No JS? Fill the form by hand. The geolocation button needs JavaScript.